Regional Weather Roundup
Issued by NWS

Home | Current Version | Previous Version | Graphics & Text | Print | Product List | Glossary On
Versions: 1 2 3 4 5 6 7 8 9 10 11 12 13 14 15 16 17 18 19 20 21 22 23 24 25 26 27
000
ASUS45 KBOU 291107
RWRCO

WEATHER ROUNDUP FOR COLORADO
NATIONAL WEATHER SERVICE DENVER/BOULDER CO
500 AM MDT MON AUG 29 2016

NOTE: "FAIR" INDICATES FEW OR NO CLOUDS BELOW 12000 FEET WITH NO
SIGNIFICANT WEATHER AND/OR OBSTRUCTIONS TO VISIBILITY.

COZ001>005-013-030-031-291200-
...NORTHWEST COLORADO...

CITY           SKY/WX    TMP DP  RH WIND       PRES   REMARKS
CRAIG          FAIR      46  38  73 CALM      30.34S
HAYDEN         FAIR      50  36  57 E12       30.35F
MEEKER         FAIR      45  40  82 NE5       30.35S
MOUNT WERNER   NOT AVBL
STEAMBOAT SPGS FAIR      43  36  76 E3        30.38S
WALDEN         FAIR      37  32  81 CALM      30.47S
$$

COZ006>008-011-291200-
...WEST CENTRAL VALLEYS...

CITY           SKY/WX    TMP DP  RH WIND       PRES   REMARKS
GRAND JUNCTION FAIR      56  46  69 SE10      30.26R
MONTROSE       FAIR      53  44  71 CALM      30.33S
EAGLE          FAIR      48  46  93 CALM      30.42R
RIFLE          FAIR      53  48  83 CALM      30.32R
DELTA          NOT AVBL
NUCLA          FAIR     N/A N/A N/A E9        30.35R
$$

COZ017>023-064>068-291200-
...SOUTHWEST COLORADO...

CITY           SKY/WX    TMP DP  RH WIND       PRES   REMARKS
DURANGO        FAIR      47  40  76 N7        30.35R
CORTEZ         FAIR      47  44  90 CALM      30.28S
PAGOSA SPRINGS TSTM      51  48  90 N7        30.46R
TELLURIDE      FAIR      45  40  84 CALM      30.49R
WOLF CREEK PAS TSTM      34  34 100 NE30G37   30.66S VSB 1/4 WCI  20
$$

COZ009-010-012-014-032>034-037-058>063-291200-
...CENTRAL COLORADO...

CITY           SKY/WX    TMP DP  RH WIND       PRES   REMARKS
ASPEN          FAIR      44  40  85 SW3       30.42S
BUENA VISTA    CLOUDY    49  46  87 SW5       30.49F
COPPER MTN     FAIR      45  32  61 E3        30.66S
BERTHOUD PASS  MOCLDY    39  28  65 E13       30.69S
COTTONWOOD PAS CLOUDY    45  43  93 CALM      30.57F FOG
GUNNISON       FAIR      46  39  76 N8        30.48F
KREMMLING      FAIR      41  37  87 CALM      30.46S
LEADVILLE      FAIR      40  37  89 NE3       30.56S
MONARCH PASS   FOG       36  36 100 NE7       30.74F VSB<1/4
SALIDA         MOCLDY    52  48  87 CALM      30.54S
SUNLIGHT       MOCLDY    45  37  76 W3        30.62R
WILKERSON PASS CLOUDY    37  36  93 S6        30.65S
$$

COZ069>075-291200-
...SAN LUIS VALLEY/SANGRE DE CRISTO MOUNTAINS...

CITY           SKY/WX    TMP DP  RH WIND       PRES   REMARKS
ALAMOSA        MOCLDY    48  47  96 NW10      30.42S
LA VETA PASS   CLOUDY    45  37  76 NW7       30.54R
SAGUACHE       MOCLDY    50  46  87 NW18G24   30.43F
$$

COZ035-036-038>040-291200-
...NORTHERN COLORADO FRONT RANGE...

CITY           SKY/WX    TMP DP  RH WIND       PRES   REMARKS
DENVER INTL AP CLOUDY    63  45  51 SW15      30.26R
DMNS CITY PARK   N/A     64  45  50 S7G16     30.26S
AURORA         MOCLDY    61  46  57 SW12      30.28R
FRONT RANGE AP NOT AVBL
ERIE MUNI ARPT FAIR      66  44  44 SW8       30.23F
BOULDER MUN AP FAIR      64  41  42 W3        30.24F
CENTENNIAL     MOCLDY    61  44  53 SW16      30.29F
BROOMFIELD     FAIR      64  41  42 SW14G20   30.27F
FORT COLLINS   FAIR      61  48  63 CALM      30.24S
LONGMONT       FAIR      63  47  57 W6        30.25F
$$

COZ041-046-047-076>085-087-088-291200-
...PIKES PEAK/PALMER DIVIDE AND SOUTHERN FOOTHILLS...

CITY           SKY/WX    TMP DP  RH WIND       PRES   REMARKS
COLO. SPRINGS  MOCLDY    56  50  80 NW9       30.31F
A. F. ACADEMY  CLOUDY    55  48  77 NE7       30.30F
SCHRIEVER AFB  NOT AVBL
ELLICOTT       NOT AVBL
FALCON         FAIR      55  46  70 NW10      30.34S
FORT CARSON    FAIR      58  48  71 W6        30.26F
LIMON          FAIR      54  52  93 N6        30.26R
MONUMENT HILL  CLOUDY    52  45  76 W10       30.36S
TRINIDAD       FAIR      55  47  74 CALM      30.33R
$$

COZ042>045-048>051-090-091-291200-
...NORTHEAST COLORADO...

CITY           SKY/WX    TMP DP  RH WIND       PRES   REMARKS
GREELEY ARPT   FAIR      64  48  55 W6        30.23S
AKRON          FAIR      60  48  64 NW8       30.23S
BURLINGTON     FAIR      61  57  87 S8        30.19S
WRAY           NOT AVBL
STERLING       FAIR      55  52  88 CALM      30.19S
HOLYOKE        FAIR      59  54  82 W5        30.18R
FORT MORGAN    FAIR      59  49  68 NW7       30.23S
$$

COZ086-089-092>099-291200-
...SOUTHEAST COLORADO...

CITY           SKY/WX    TMP DP  RH WIND       PRES   REMARKS
PUEBLO         FAIR      61  50  67 NW13      30.23F
LA JUNTA       MOCLDY    63  51  65 W13       30.20S
LAMAR          FAIR      61  56  83 S8        30.14S
SPRINGFIELD      N/A     60  57  89 SW5       30.22S
$$




USA.gov is the U.S. government's official web portal to all federal, state and local government web resources and services.